Regional Weather Roundup
Issued by NWS

Home | Current Version | Previous Version | Text Only | Print | Product List | Glossary Off
Versions: 1 2 3 4 5 6 7 8 9 10 11 12 13 14 15 16 17 18 19 20 21 22 23 24 25 26 27 28 29 30 31 32 33 34 35 36 37 38 39 40 41 42 43 44 45 46 47 48 49 50

340
ASUS45 KTFX 241210
RWRMT
MONTANA REGIONAL WEATHER ROUNDUP
NATIONAL WEATHER SERVICE GREAT FALLS MT
500 AM MST FRI NOV 24 2017

NOTE: "FAIR" INDICATES FEW OR NO CLOUDS BELOW 12000 FEET WITH NO
SIGNIFICANT WEATHER AND/OR OBSTRUCTIONS TO VISIBILITY.

MTZ001>007-043-241300-
WEST OF THE DIVIDE

CITY           SKY/WX    TMP DP  RH WIND       PRES   REMARKS
KALISPELL      MOCLDY    40  29  64 SW8       29.88R
MISSOULA       FAIR      36  29  75 N5        29.94R
BUTTE          FAIR      37  25  61 W10       29.85F WCI  30
MULLAN PASS    CLOUDY    28  23  81 VRB6      29.90R WCI  22
ANACONDA         N/A     39  23  52 SW10      29.88R
DEER LODGE       N/A     36  25  64 SW5       29.90R
EUREKA           N/A     36  27  69 MISG      29.87R
HAMILTON         N/A     39  23  52 E7        29.95R
LIBBY            N/A     37  30  75 S3        29.89R
RONAN            N/A     37  27  68 W3        29.98R
$$

MTZ008-052>055-241300-
SOUTHWEST MONTANA

CITY           SKY/WX    TMP DP  RH WIND       PRES   REMARKS
BOZEMAN        FAIR      38  31  76 N8        29.88R
DILLON         FAIR      40  29  64 S6        29.88R
W YELLOWSTONE  FAIR      37  34  87 VRB5      29.88R
ENNIS          CLOUDY    41  34  75 S9G17     29.90F
$$

MTZ009-010-012-014-046-048-049-054-241300-
EAST SLOPES AND CENTRAL MONTANA

CITY           SKY/WX    TMP DP  RH WIND       PRES   REMARKS
CUT BANK       FAIR      37  24  59 W23       29.71R WCI  26
GREAT FALLS    FAIR      36  19  50 SW14      29.77R WCI  27
MALMSTROM AFB  FAIR      42  20  40 W14       29.77R
HELENA         FAIR      38  24  57 W6        29.86R
BOWMANS CRNR   FAIR      33  21  60 W23       29.76R WCI  21
CHOTEAU          N/A     39  18  41 CALM      29.77R
FAIRFIELD      FAIR      37  22  54 SW13      29.76R WCI  29
POWER          FAIR      36  23  59 W13       29.74R WCI  27
RAYNESFORD     FAIR      42  21  42 W23G32    29.76R
ULM            FAIR      41  25  52 W16       29.78R
$$

MTZ011-013-016-021-045-047-050-051-241300-
NORTH CENTRAL MONTANA

CITY           SKY/WX    TMP DP  RH WIND       PRES   REMARKS
HAVRE          MOCLDY    39  34  82 W14       29.68R WCI  31
LEWISTOWN      FAIR      38  25  59 W10       29.74R WCI  31
N BAR RANCH    FAIR      41  23  48 NW22G30   29.71R
CHINOOK          N/A     39  36  87 W10G17    29.67R
DENTON         FAIR      44  20  39 W24G31    29.68R
GEYSER         FAIR      38  24  57 NW10      29.76R WCI  30
GRASS RANGE    FAIR      46  21  37 NW33G41   29.67R
STANFORD       FAIR      42  16  35 NW25      29.72R
WINIFRED       MOCLDY    41  26  53 NW18G25   29.71R
$$

MTZ017>020-022>027-061-062-241300-
NORTHEAST MONTANA

CITY           SKY/WX    TMP DP  RH WIND       PRES   REMARKS
GLASGOW        MOCLDY    37  35  92 W7        29.58R WCI  32
GLENDIVE       FAIR      44  37  76 NW20G31   29.55R
JORDAN           N/A     38  50 100 W9        29.62R WCI  31
SIDNEY         CLOUDY    45  38  76 NW14      29.51R
WOLF POINT     MOCLDY    43  36  76 W12       29.56R
MALTA          CLOUDY    39  37  93 W21       29.60R WCI  29
POPLAR           N/A     39  36  87 NW9       29.54R
$$

MTZ028>42-056>058-241300-
SOUTHCENTRAL AND SOUTHEAST MONTANA

CITY           SKY/WX    TMP DP  RH WIND       PRES   REMARKS
BAKER          FAIR      45  44  97 W13       29.56R
BILLINGS       FAIR      48  33  56 NW18G31   29.72R
LIVINGSTON     CLOUDY    46  34  62 NW18G24   29.82R
MILES CITY     FAIR      46  40  79 NW14      29.62R
BIG TIMBER     PTCLDY    45  28  53 W36G45    29.77F
FORSYTH          N/A     50  43  76 N8G16     29.64R
HARLOWTON      FAIR      39  26  59 W28       29.75R WCI  28
LAUREL           N/A     48  34  57 NW23      29.73R
ROUNDUP          N/A     47  25  42 W17       29.65R
$$

REGIONAL REPORTS...DAKOTAS

CITY           SKY/WX    TMP DP  RH WIND       PRES   REMARKS
WILLISTON      CLOUDY    41  37  86 W10       29.48R
MINOT          LGT RAIN  41  37  86 SW10      29.37R
DICKINSON      CLOUDY    48  43  82 W20       29.43F
BEACH          FAIR      46  43  87 W21       29.52S
CROSBY         MOCLDY    41  37  87 NW13      29.46R
TIOGA          LGT RAIN  37  37 100 NW13      29.46R WCI  29
WATFORD CITY   DRIZZLE   41  41 100 NW9       29.47R
BISMARCK       CLOUDY    51  38  60 NW7       29.42R
GRAND FORKS    CLOUDY    39  35  86 NW6       29.27R
FARGO          FAIR      45  37  73 CALM      29.29R
RAPID CITY     FAIR      50  30  46 W7        29.53F
$$

REGIONAL REPORTS...WYOMING/IDAHO/WASHINGTON

CITY           SKY/WX    TMP DP  RH WIND       PRES   REMARKS
GILLETTE       MOCLDY    51  33  50 NW22G41   29.71R
SHERIDAN       LGT RAIN  47  42  83 NW28G41   29.70R
BUFFALO WY     MOCLDY    46  37  71 NW18G31   29.75R
CODY           LGT RAIN  49  39  68 NW20G25   29.75R
YELLOWSTONE LA   N/A     35  31  85 W10G20    29.89F WCI  27
IDAHO FALLS    FAIR      43  38  82 SW9       29.90R
SALMON         CLOUDY    43  39  86 CALM      29.94R
BOISE          CLOUDY    50  49  96 NW7       29.93F
SPOKANE        MOCLDY    36  35  96 S13       29.95R WCI  27
$$

REGIONAL REPORTS...ALBERTA

CITY           SKY/WX    TMP DP  RH WIND       PRES   REMARKS
EDMONTON       CLOUDY    36  25  64 SW6       29.50R WCI  31
CALGARY        MOCLDY    34  21  60 E2        29.60R
LETHBRIDGE     CLEAR     39  25  56 W26G33    29.67R WCI  28
MEDICINE HAT     N/A     34  32  93 S10       29.65R WCI  26
$$

REGIONAL REPORTS...SASKATCHEWAN

CITY           SKY/WX    TMP DP  RH WIND       PRES   REMARKS
SWIFT CURRENT  CLEAR     34  32  93 W15       29.53R WCI  24
REGINA         PTCLDY    36  34  93 W13       29.44R WCI  27
SASKATOON      PTCLDY    27  23  86 SW9       29.42R WCI  17
$$




USA.gov is the U.S. government's official web portal to all federal, state and local government web resources and services.